CAPE
nan nan nan nan nan nan nan nan nan nan nan nan nan nan nan nan nan nan nan nan nan nan nan nan nan nan nan nan nan nan nan nan nan nan nan nan nan nan nan nan nan nan nan nan nan nan nan nan nan nan nan nan nan nan nan nan nan nan nan 2 2 7 11 14 14 15 15 15 6 6 4 2 nan nan nan nan nan nan nan nan nan nan nan nan nan nan
nan nan nan nan nan nan nan nan nan nan nan nan nan nan nan nan nan nan nan nan nan nan nan nan nan nan nan nan nan nan nan nan nan nan nan nan nan nan nan nan nan nan nan nan nan nan nan nan nan nan nan nan nan nan nan nan nan nan nan nan nan nan 2 8 8 10 12 11 8 8 4 nan nan nan nan nan nan nan nan nan nan nan nan nan nan nan
nan nan nan nan nan nan nan nan nan nan nan nan nan nan nan nan nan nan nan nan nan nan nan nan nan nan nan nan nan nan nan nan nan nan nan nan nan nan nan nan nan nan nan nan nan nan nan nan nan nan nan nan nan nan nan nan nan nan nan nan nan nan nan nan nan 1 2 3 1 1 nan nan nan nan nan nan nan nan nan nan nan nan nan nan nan nan
nan nan nan nan nan nan nan nan nan nan nan nan nan nan nan nan nan nan nan nan nan nan nan nan nan nan nan nan 1 1 nan nan nan nan nan nan nan nan nan nan nan nan nan nan nan nan nan nan nan nan nan nan nan nan nan nan nan nan nan nan nan nan nan nan nan nan nan nan nan nan nan nan nan nan nan nan nan nan nan nan nan nan nan nan nan nan
nan nan nan nan nan nan nan nan nan nan nan nan nan nan nan nan nan nan nan nan nan nan nan nan nan nan nan nan 1 1 0 nan nan nan nan nan nan nan nan nan nan nan nan nan nan nan nan nan nan nan nan nan nan nan nan nan nan nan nan nan nan nan nan nan nan nan nan nan nan nan nan nan nan nan nan nan nan nan nan nan nan nan nan nan nan nan
nan nan nan nan nan nan nan nan nan nan nan nan nan nan nan nan nan nan nan nan nan nan nan nan nan nan nan nan 1 1 0 0 0 0 nan nan nan nan nan nan nan nan nan nan nan nan nan nan nan nan nan nan nan nan nan nan nan nan nan nan nan nan nan nan nan nan nan nan nan nan nan nan nan nan nan nan nan nan nan nan nan nan nan nan nan nan
nan nan nan nan nan nan nan nan nan nan nan nan nan nan nan nan nan nan nan nan nan nan nan nan nan nan nan nan 1 1 1 1 0 0 nan nan nan nan nan nan nan nan nan nan nan nan nan nan nan nan nan nan nan nan nan nan nan nan nan nan nan nan nan nan nan nan nan nan nan nan nan nan nan nan nan nan nan nan nan nan nan nan nan nan nan nan
nan nan nan nan nan nan nan nan nan nan nan nan nan nan nan nan nan nan nan nan nan nan nan nan nan nan nan nan nan nan nan nan nan nan nan nan nan nan nan nan nan nan nan nan nan nan nan nan nan nan nan nan nan nan nan nan nan nan nan nan nan nan nan nan nan nan nan nan nan nan nan nan nan nan nan nan nan nan nan nan nan nan nan nan nan nan
nan nan nan nan nan nan nan nan nan nan nan nan nan nan nan nan nan nan nan nan nan nan nan nan nan nan nan nan nan nan nan nan nan nan nan nan nan nan nan nan nan nan nan nan nan nan nan nan nan nan nan nan nan nan nan nan nan nan nan nan nan nan nan nan nan nan nan nan nan nan nan nan nan nan nan nan nan nan nan nan nan nan nan nan nan nan
nan nan nan nan nan nan nan nan nan nan nan nan nan nan nan nan nan nan nan nan nan nan nan nan nan nan nan nan nan nan nan nan nan nan nan nan nan nan nan nan nan nan nan nan nan nan nan nan nan nan nan nan nan nan nan nan nan nan nan nan nan nan nan nan nan nan nan nan nan nan nan nan nan nan nan nan nan nan nan nan nan nan nan nan nan nan
nan nan nan nan nan nan nan nan nan nan nan nan nan nan nan nan nan nan nan nan nan nan nan nan nan nan nan nan nan nan nan nan nan nan nan nan nan nan nan nan nan nan nan nan nan nan nan nan nan nan nan nan nan nan nan nan nan nan nan nan nan nan nan nan nan nan nan nan nan nan nan nan nan nan nan nan nan nan nan nan nan nan nan nan nan nan
nan nan nan nan nan nan nan nan nan nan nan nan nan nan nan nan nan nan nan nan nan nan nan nan nan nan nan nan nan nan nan nan nan nan nan nan nan nan nan nan nan nan nan nan nan nan nan nan nan nan nan nan nan nan nan nan nan nan nan nan nan nan nan nan nan nan nan nan nan nan nan nan nan nan nan nan nan nan nan nan nan nan nan nan nan 0
nan nan nan nan nan nan nan nan nan nan nan nan nan nan nan nan nan nan nan nan nan nan nan nan nan nan nan nan nan nan nan nan nan nan nan nan nan nan nan nan nan nan nan nan nan nan nan nan nan nan nan nan nan nan nan nan nan nan nan nan nan nan nan nan nan nan nan nan nan nan nan nan nan nan nan nan nan nan nan nan nan nan nan nan nan 0
nan nan nan nan nan nan nan nan nan nan nan nan nan nan nan nan nan nan nan nan nan nan nan nan nan nan nan nan nan nan nan nan nan nan nan nan nan nan nan nan nan nan nan nan nan nan nan nan nan nan nan nan nan nan nan nan nan nan nan nan nan nan nan nan nan nan nan nan nan nan nan nan nan nan nan nan nan nan nan nan nan nan nan nan nan nan
nan nan nan nan nan nan nan nan nan nan nan nan nan nan nan nan nan nan nan nan nan nan nan nan nan nan nan nan nan nan nan nan nan nan nan nan nan nan nan nan nan nan nan nan nan nan nan nan nan nan nan nan nan nan nan nan nan nan nan nan nan nan nan nan nan nan nan nan nan nan nan nan 0 0 0 nan nan nan nan nan nan nan nan nan nan nan
nan nan nan nan nan nan nan nan nan nan nan nan nan nan nan nan nan nan nan nan nan nan nan nan nan nan nan nan nan nan nan nan nan nan nan nan nan nan nan nan nan nan nan nan nan nan nan nan nan nan nan nan nan nan nan nan nan nan nan nan nan nan nan nan nan nan nan nan 0 0 0 0 1 1 1 0 nan nan nan nan nan nan nan nan nan nan
nan nan nan nan nan nan nan nan nan nan nan nan nan nan nan nan nan nan nan nan nan nan nan nan nan nan nan nan nan nan nan nan nan nan nan nan nan nan nan nan nan nan nan nan nan nan nan nan nan nan nan nan nan nan nan nan nan nan nan nan nan nan nan nan nan nan nan nan 0 0 1 1 1 1 1 0 nan nan nan nan nan nan nan nan nan nan
nan nan nan nan nan nan nan nan nan nan nan nan nan nan nan nan nan nan nan nan nan nan nan nan nan nan nan nan nan nan nan nan nan nan nan nan nan nan nan nan nan nan nan nan nan nan nan nan nan nan nan nan nan nan nan nan nan nan nan 0 0 0 nan nan nan nan nan nan 0 0 1 2 2 2 1 0 nan nan nan nan nan nan nan nan nan nan
nan nan nan nan nan nan nan nan nan nan nan nan nan nan nan nan nan nan nan nan nan nan nan nan nan nan nan nan nan nan nan nan nan nan nan nan nan nan nan nan nan nan nan nan nan nan nan nan nan nan nan nan nan nan nan nan nan nan 0 0 0 0 nan nan nan nan 0 1 1 1 2 2 2 2 2 0 nan nan nan nan nan nan nan nan nan nan
nan nan nan nan nan nan nan nan nan nan nan nan nan nan nan nan nan nan nan nan nan nan nan nan nan nan nan nan nan nan nan nan nan nan nan nan nan nan nan nan nan nan nan nan nan nan nan nan nan nan nan nan nan nan nan nan nan nan 0 1 1 0 nan nan nan nan 1 1 2 2 2 2 2 2 2 0 0 0 nan nan nan nan nan nan nan nan
nan nan nan nan nan nan nan nan nan nan nan nan nan nan nan nan nan nan nan nan nan nan nan nan nan nan nan nan nan nan nan nan nan nan nan nan nan nan nan nan nan nan nan nan nan nan nan nan nan nan nan nan nan nan nan nan nan 0 1 1 1 nan nan nan nan nan 1 1 1 1 2 2 2 2 1 1 0 0 0 nan nan nan nan nan nan nan
nan nan nan nan nan nan nan nan nan nan nan nan nan nan nan nan nan nan nan nan nan nan nan nan nan nan nan nan nan nan nan nan nan nan nan nan nan nan nan nan nan nan nan nan nan nan nan nan nan nan nan nan nan nan nan nan nan 1 1 0 0 nan nan nan nan 1 1 2 2 2 2 2 2 2 2 1 0 0 0 0 0 nan nan nan nan nan
nan nan nan nan nan nan nan nan nan nan nan nan nan nan nan nan nan nan nan nan nan nan nan nan nan nan nan nan nan nan nan nan nan nan nan nan nan nan nan nan nan nan nan nan nan nan nan nan nan nan nan nan nan nan nan 0 0 1 1 0 0 nan nan 0 0 1 2 2 2 2 3 3 2 2 2 1 0 0 0 1 1 0 nan nan nan nan
nan nan nan nan nan nan nan nan nan nan nan nan nan nan nan nan nan nan nan nan nan nan nan nan nan nan nan nan nan nan nan nan nan nan nan nan nan nan nan nan nan nan nan nan nan nan nan nan nan nan nan nan nan nan nan 1 1 1 1 0 0 0 0 1 1 2 3 3 3 3 3 3 3 3 2 1 0 0 1 1 1 0 nan nan nan nan
nan nan nan nan nan nan nan nan nan nan nan nan nan nan nan nan nan nan nan nan nan nan nan nan nan nan nan nan nan nan nan nan nan nan nan nan nan nan nan nan nan nan nan nan nan nan nan nan nan nan nan nan nan nan nan 1 1 1 1 1 1 0 0 2 2 3 3 3 3 3 4 4 3 3 2 1 1 1 1 1 1 0 0 nan nan nan
nan nan nan nan nan nan nan nan nan nan nan nan nan nan nan nan nan nan nan nan nan nan nan nan nan nan nan nan nan nan nan nan nan nan nan nan nan nan nan nan nan nan nan nan nan nan nan nan nan nan nan nan nan nan nan 2 2 2 2 2 2 2 2 3 3 3 3 3 3 3 3 3 3 3 2 1 1 1 1 1 1 1 0 nan nan nan
nan nan nan nan nan nan nan nan nan nan nan nan nan nan nan nan nan nan nan nan nan nan nan nan nan nan nan nan nan nan nan nan nan nan nan nan nan nan nan nan nan nan nan nan nan nan nan nan nan nan nan nan nan nan nan 3 3 2 3 3 3 3 3 3 3 3 3 3 3 3 3 3 3 3 2 2 1 1 1 1 1 0 0 0 0 nan
nan nan nan nan nan nan nan nan nan nan nan nan nan nan nan nan nan nan nan nan nan nan nan nan nan nan nan nan nan nan nan nan nan nan nan nan nan nan nan nan nan nan nan nan nan nan nan nan nan nan nan nan nan nan nan 3 3 3 4 4 4 3 4 4 4 3 3 3 3 3 3 3 2 2 2 1 2 2 1 1 1 0 0 nan nan nan
nan nan nan nan nan 0 0 0 0 0 1 1 0 0 nan nan nan nan nan nan nan nan nan nan nan nan nan nan nan nan nan nan nan nan nan nan nan nan nan nan nan nan nan nan nan nan nan nan nan nan nan nan nan nan nan 4 4 3 5 5 5 4 4 3 3 3 3 3 3 3 3 3 3 3 2 2 2 2 1 1 1 0 nan nan nan nan
nan nan nan 1 1 4 3 1 2 2 2 1 0 0 nan nan nan nan nan nan nan nan nan nan nan nan nan nan nan nan nan nan nan nan nan nan nan nan nan nan nan nan nan nan nan nan nan nan nan nan nan nan nan nan nan nan nan nan 0 5 5 4 4 3 3 4 3 3 3 3 2 3 3 3 2 2 2 2 2 1 1 nan nan nan nan nan
nan nan nan nan nan nan nan nan 1 1 7 5 2 2 nan nan nan nan nan nan nan nan nan nan nan nan nan nan nan nan nan nan nan nan nan nan nan nan nan nan nan nan nan nan nan nan nan nan nan nan nan nan nan nan nan nan nan nan nan nan nan 0 5 4 4 3 3 2 2 2 2 2 2 2 2 2 2 2 2 2 2 nan nan nan nan nan
nan nan nan nan nan nan nan nan nan nan nan nan nan nan nan nan nan nan nan nan nan nan nan nan nan nan nan nan nan nan nan nan nan nan nan nan nan nan nan nan nan nan nan nan nan nan nan nan nan nan nan nan nan nan nan nan nan nan nan nan nan nan nan nan nan nan nan nan nan nan nan 0 0 0 0 0 0 0 1 1 1 0 nan nan nan nan
nan nan nan nan nan nan nan nan nan nan nan nan nan nan nan nan nan nan nan nan nan nan nan nan nan nan nan nan nan nan nan nan nan nan nan nan nan nan nan nan nan nan nan nan nan nan nan nan nan nan nan nan nan nan nan nan nan nan nan nan nan nan nan nan nan nan nan nan nan nan nan nan 0 0 0 0 0 0 0 0 0 1 nan nan nan nan
nan nan nan nan nan nan nan nan nan nan nan nan nan nan nan nan nan nan nan nan nan nan nan nan nan nan nan nan nan nan nan nan nan nan nan nan nan nan nan nan nan nan nan nan nan nan nan nan nan nan nan nan nan nan nan nan nan nan nan nan nan nan nan nan nan nan nan nan nan nan nan nan nan nan nan 0 nan nan 0 0 0 0 1 nan nan nan
nan nan nan nan nan nan nan nan nan nan nan nan nan nan nan nan nan nan nan nan nan nan nan nan nan nan nan nan nan nan nan nan nan nan nan nan nan nan nan nan nan nan nan nan nan nan nan nan nan nan nan nan nan nan nan nan nan nan nan nan nan nan nan nan nan nan nan nan nan nan nan nan nan nan nan nan nan nan nan nan nan 0 1 3 3 nan
nan nan nan nan nan nan nan nan nan nan nan nan nan nan nan nan nan nan nan nan nan nan nan nan nan nan nan nan nan nan nan nan nan nan nan nan nan nan nan nan nan nan nan nan nan nan nan nan nan nan nan nan nan nan nan nan nan nan nan nan nan nan nan nan nan nan nan nan nan nan nan nan nan nan nan nan nan nan nan 0 0 0 1 2 2 1
nan nan nan nan nan nan nan nan nan nan nan nan nan nan nan nan nan nan nan nan nan nan nan nan nan nan nan nan nan nan nan nan nan nan nan nan nan nan nan nan nan nan nan nan nan nan nan nan nan nan nan nan nan nan nan nan nan nan nan nan nan nan nan nan nan nan nan nan nan nan nan nan nan nan nan nan nan nan nan 0 0 0 0 1 1 1
nan nan nan nan nan nan nan nan nan nan nan nan nan nan nan nan nan nan nan nan nan nan nan nan nan nan nan nan nan nan nan nan nan nan nan nan nan nan nan nan nan nan nan nan nan nan nan nan nan nan nan nan nan nan nan nan nan nan nan nan nan nan nan nan nan nan nan nan nan nan nan nan nan nan nan nan nan nan nan nan nan nan nan nan nan 1
nan nan nan nan nan nan nan nan nan nan nan nan nan nan nan nan nan nan nan nan nan nan nan nan nan nan nan nan nan nan nan nan nan nan nan nan nan nan nan nan nan nan nan nan nan nan nan nan nan nan nan nan nan nan nan nan nan nan nan nan nan nan nan nan nan nan nan nan nan nan nan nan nan nan nan nan nan nan nan nan nan nan nan nan nan nan
nan nan nan nan nan nan nan nan nan nan nan nan nan nan nan nan nan nan nan nan nan nan nan nan nan nan nan nan nan nan nan nan nan nan nan nan nan nan nan nan nan nan nan nan nan nan nan nan nan nan nan nan nan nan nan nan nan nan nan nan nan nan nan nan nan nan nan nan nan nan nan nan nan nan nan nan nan nan nan nan nan nan nan nan nan nan
nan nan nan nan nan nan nan nan nan nan nan nan nan nan nan nan nan nan nan nan nan nan nan nan nan nan nan nan nan nan nan nan nan nan nan nan nan nan nan nan nan nan nan nan nan nan nan nan nan nan nan nan nan nan nan nan nan nan nan nan nan nan nan nan nan nan nan nan nan nan nan nan nan nan nan nan nan nan nan nan nan nan nan nan nan nan
nan nan nan nan nan nan nan nan nan nan nan nan nan nan nan nan nan nan nan nan nan nan nan nan nan nan nan nan nan nan nan nan nan nan nan nan nan nan nan nan nan nan nan nan nan nan nan nan nan nan nan nan nan nan nan nan nan nan nan nan nan nan nan nan nan nan nan nan nan nan nan nan nan nan nan nan nan nan nan nan nan nan nan nan nan nan
nan nan nan nan nan nan nan nan nan nan nan nan nan nan nan nan nan nan nan nan nan nan nan nan nan nan nan nan nan nan nan nan nan nan nan nan nan nan nan nan nan nan nan nan nan nan nan nan nan nan nan nan nan nan nan nan nan nan nan nan nan nan nan nan nan nan nan nan nan nan nan nan nan nan nan nan nan nan nan nan nan nan nan nan nan nan
nan nan nan nan nan nan nan nan nan nan nan nan nan nan nan nan nan nan nan nan nan nan nan nan nan nan nan nan nan nan nan nan nan nan nan nan nan nan nan nan nan nan nan nan nan nan nan nan nan nan nan nan nan nan nan nan nan nan nan nan nan nan nan nan nan nan nan nan nan nan nan nan nan nan nan nan nan nan nan nan nan nan nan nan nan nan
nan nan nan nan nan nan nan nan nan nan nan nan nan nan nan nan nan nan nan nan nan nan nan nan nan nan nan nan nan nan nan nan nan nan nan nan nan nan nan nan nan nan nan nan nan nan nan nan nan nan nan nan nan nan nan nan nan nan nan nan nan nan nan nan nan nan nan nan nan nan nan nan nan nan nan nan nan nan nan nan nan nan nan nan nan nan
nan nan nan nan nan nan nan nan nan nan nan nan nan nan nan nan nan nan nan nan nan nan nan nan nan nan nan nan nan nan nan nan nan nan nan nan nan nan nan nan nan nan nan nan nan nan nan nan nan nan nan nan nan nan nan nan nan nan nan nan nan nan nan nan nan nan nan nan nan nan nan nan nan nan nan nan nan nan nan nan nan nan nan nan nan nan
nan nan nan nan nan nan nan nan nan nan nan nan nan nan nan nan nan nan nan nan nan nan nan nan nan nan nan nan nan nan nan nan nan nan nan nan nan nan nan nan nan nan nan nan nan nan nan nan nan nan nan nan nan nan nan nan nan nan nan nan nan nan nan nan nan nan nan nan nan nan nan nan nan nan nan nan nan nan nan nan nan nan nan nan nan nan
nan nan nan nan nan nan nan nan nan nan nan nan nan nan nan nan nan nan nan nan nan nan nan nan nan nan nan nan nan nan nan nan nan nan nan nan nan nan nan nan nan nan nan nan nan nan nan nan nan nan nan nan nan nan nan nan nan nan nan nan nan nan nan nan nan nan nan nan nan nan nan nan nan nan nan nan nan nan nan nan nan nan nan nan nan nan
nan nan nan nan nan nan nan nan nan nan nan nan nan nan nan nan nan nan nan nan nan nan nan nan nan nan nan nan nan nan nan nan nan nan nan nan nan nan nan nan nan nan nan nan nan nan nan nan nan nan nan nan nan nan nan nan nan nan nan nan nan nan nan nan nan nan nan nan nan nan nan nan nan nan nan nan nan nan nan nan nan nan nan nan nan nan
nan nan nan nan nan nan nan nan nan nan nan nan nan nan nan nan nan nan nan nan nan nan nan nan nan nan nan nan nan nan nan nan nan nan nan nan nan nan nan nan nan nan nan nan nan nan nan nan nan nan nan nan nan nan nan nan nan nan nan nan nan nan nan nan nan nan nan nan nan nan nan nan nan nan nan nan nan nan nan nan nan nan nan nan nan nan
nan nan nan nan nan nan nan nan nan nan nan nan nan nan nan nan nan nan nan nan nan nan nan nan nan nan nan nan nan nan nan nan nan nan nan nan nan nan nan nan nan nan nan nan nan nan nan nan nan nan nan nan nan nan nan nan nan nan nan nan nan nan nan nan nan nan nan nan nan nan nan nan nan nan nan nan nan nan nan nan nan nan nan nan nan nan
CIN
nan nan nan nan nan nan nan nan nan nan nan nan nan nan nan nan nan nan nan nan nan nan nan nan nan nan nan nan nan nan nan nan nan nan nan nan nan nan nan nan nan nan nan nan nan nan nan nan nan nan nan nan nan nan nan nan nan nan nan -0 -0 -0 -0 -0 -0 -0 -0 -0 -0 -0 -0 -0 nan nan nan nan nan nan nan nan nan nan nan nan nan nan
nan nan nan nan nan nan nan nan nan nan nan nan nan nan nan nan nan nan nan nan nan nan nan nan nan nan nan nan nan nan nan nan nan nan nan nan nan nan nan nan nan nan nan nan nan nan nan nan nan nan nan nan nan nan nan nan nan nan nan nan nan nan -0 -0 -0 -0 -0 -0 -0 -0 -0 nan nan nan nan nan nan nan nan nan nan nan nan nan nan nan
nan nan nan nan nan nan nan nan nan nan nan nan nan nan nan nan nan nan nan nan nan nan nan nan nan nan nan nan nan nan nan nan nan nan nan nan nan nan nan nan nan nan nan nan nan nan nan nan nan nan nan nan nan nan nan nan nan nan nan nan nan nan nan nan nan -1 -1 -0 -0 -0 nan nan nan nan nan nan nan nan nan nan nan nan nan nan nan nan
nan nan nan nan nan nan nan nan nan nan nan nan nan nan nan nan nan nan nan nan nan nan nan nan nan nan nan nan -0 -0 nan nan nan nan nan nan nan nan nan nan nan nan nan nan nan nan nan nan nan nan nan nan nan nan nan nan nan nan nan nan nan nan nan nan nan nan nan nan nan nan nan nan nan nan nan nan nan nan nan nan nan nan nan nan nan nan
nan nan nan nan nan nan nan nan nan nan nan nan nan nan nan nan nan nan nan nan nan nan nan nan nan nan nan nan -2 -2 -0 nan nan nan nan nan nan nan nan nan nan nan nan nan nan nan nan nan nan nan nan nan nan nan nan nan nan nan nan nan nan nan nan nan nan nan nan nan nan nan nan nan nan nan nan nan nan nan nan nan nan nan nan nan nan nan
nan nan nan nan nan nan nan nan nan nan nan nan nan nan nan nan nan nan nan nan nan nan nan nan nan nan nan nan -1 -1 -0 -0 -0 -0 nan nan nan nan nan nan nan nan nan nan nan nan nan nan nan nan nan nan nan nan nan nan nan nan nan nan nan nan nan nan nan nan nan nan nan nan nan nan nan nan nan nan nan nan nan nan nan nan nan nan nan nan
nan nan nan nan nan nan nan nan nan nan nan nan nan nan nan nan nan nan nan nan nan nan nan nan nan nan nan nan -2 -2 -0 -0 -0 -0 nan nan nan nan nan nan nan nan nan nan nan nan nan nan nan nan nan nan nan nan nan nan nan nan nan nan nan nan nan nan nan nan nan nan nan nan nan nan nan nan nan nan nan nan nan nan nan nan nan nan nan nan
nan nan nan nan nan nan nan nan nan nan nan nan nan nan nan nan nan nan nan nan nan nan nan nan nan nan nan nan nan nan nan nan nan nan nan nan nan nan nan nan nan nan nan nan nan nan nan nan nan nan nan nan nan nan nan nan nan nan nan nan nan nan nan nan nan nan nan nan nan nan nan nan nan nan nan nan nan nan nan nan nan nan nan nan nan nan
nan nan nan nan nan nan nan nan nan nan nan nan nan nan nan nan nan nan nan nan nan nan nan nan nan nan nan nan nan nan nan nan nan nan nan nan nan nan nan nan nan nan nan nan nan nan nan nan nan nan nan nan nan nan nan nan nan nan nan nan nan nan nan nan nan nan nan nan nan nan nan nan nan nan nan nan nan nan nan nan nan nan nan nan nan nan
nan nan nan nan nan nan nan nan nan nan nan nan nan nan nan nan nan nan nan nan nan nan nan nan nan nan nan nan nan nan nan nan nan nan nan nan nan nan nan nan nan nan nan nan nan nan nan nan nan nan nan nan nan nan nan nan nan nan nan nan nan nan nan nan nan nan nan nan nan nan nan nan nan nan nan nan nan nan nan nan nan nan nan nan nan nan
nan nan nan nan nan nan nan nan nan nan nan nan nan nan nan nan nan nan nan nan nan nan nan nan nan nan nan nan nan nan nan nan nan nan nan nan nan nan nan nan nan nan nan nan nan nan nan nan nan nan nan nan nan nan nan nan nan nan nan nan nan nan nan nan nan nan nan nan nan nan nan nan nan nan nan nan nan nan nan nan nan nan nan nan nan nan
nan nan nan nan nan nan nan nan nan nan nan nan nan nan nan nan nan nan nan nan nan nan nan nan nan nan nan nan nan nan nan nan nan nan nan nan nan nan nan nan nan nan nan nan nan nan nan nan nan nan nan nan nan nan nan nan nan nan nan nan nan nan nan nan nan nan nan nan nan nan nan nan nan nan nan nan nan nan nan nan nan nan nan nan nan -2
nan nan nan nan nan nan nan nan nan nan nan nan nan nan nan nan nan nan nan nan nan nan nan nan nan nan nan nan nan nan nan nan nan nan nan nan nan nan nan nan nan nan nan nan nan nan nan nan nan nan nan nan nan nan nan nan nan nan nan nan nan nan nan nan nan nan nan nan nan nan nan nan nan nan nan nan nan nan nan nan nan nan nan nan nan -3
nan nan nan nan nan nan nan nan nan nan nan nan nan nan nan nan nan nan nan nan nan nan nan nan nan nan nan nan nan nan nan nan nan nan nan nan nan nan nan nan nan nan nan nan nan nan nan nan nan nan nan nan nan nan nan nan nan nan nan nan nan nan nan nan nan nan nan nan nan nan nan nan nan nan nan nan nan nan nan nan nan nan nan nan nan nan
nan nan nan nan nan nan nan nan nan nan nan nan nan nan nan nan nan nan nan nan nan nan nan nan nan nan nan nan nan nan nan nan nan nan nan nan nan nan nan nan nan nan nan nan nan nan nan nan nan nan nan nan nan nan nan nan nan nan nan nan nan nan nan nan nan nan nan nan nan nan nan nan -0 -0 -0 nan nan nan nan nan nan nan nan nan nan nan
nan nan nan nan nan nan nan nan nan nan nan nan nan nan nan nan nan nan nan nan nan nan nan nan nan nan nan nan nan nan nan nan nan nan nan nan nan nan nan nan nan nan nan nan nan nan nan nan nan nan nan nan nan nan nan nan nan nan nan nan nan nan nan nan nan nan nan nan -0 -0 -0 -0 -0 -0 -0 -0 nan nan nan nan nan nan nan nan nan nan
nan nan nan nan nan nan nan nan nan nan nan nan nan nan nan nan nan nan nan nan nan nan nan nan nan nan nan nan nan nan nan nan nan nan nan nan nan nan nan nan nan nan nan nan nan nan nan nan nan nan nan nan nan nan nan nan nan nan nan nan nan nan nan nan nan nan nan nan -0 -0 -0 -0 -0 -0 -0 -0 nan nan nan nan nan nan nan nan nan nan
nan nan nan nan nan nan nan nan nan nan nan nan nan nan nan nan nan nan nan nan nan nan nan nan nan nan nan nan nan nan nan nan nan nan nan nan nan nan nan nan nan nan nan nan nan nan nan nan nan nan nan nan nan nan nan nan nan nan nan -0 -0 -0 nan nan nan nan nan nan -0 -0 -0 -0 -0 -0 -0 -0 nan nan nan nan nan nan nan nan nan nan
nan nan nan nan nan nan nan nan nan nan nan nan nan nan nan nan nan nan nan nan nan nan nan nan nan nan nan nan nan nan nan nan nan nan nan nan nan nan nan nan nan nan nan nan nan nan nan nan nan nan nan nan nan nan nan nan nan nan -0 -0 -0 -0 nan nan nan nan -0 -0 -0 -0 -0 -0 -0 -0 -0 -0 nan nan nan nan nan nan nan nan nan nan
nan nan nan nan nan nan nan nan nan nan nan nan nan nan nan nan nan nan nan nan nan nan nan nan nan nan nan nan nan nan nan nan nan nan nan nan nan nan nan nan nan nan nan nan nan nan nan nan nan nan nan nan nan nan nan nan nan nan -0 -0 -0 -0 nan nan nan nan -0 -0 -0 -0 -0 -0 -0 -0 -0 -0 -0 -0 nan nan nan nan nan nan nan nan
nan nan nan nan nan nan nan nan nan nan nan nan nan nan nan nan nan nan nan nan nan nan nan nan nan nan nan nan nan nan nan nan nan nan nan nan nan nan nan nan nan nan nan nan nan nan nan nan nan nan nan nan nan nan nan nan nan -0 -0 -0 -0 nan nan nan nan nan -0 -0 -0 -0 -0 -0 -0 -0 -0 -0 -0 -0 -0 nan nan nan nan nan nan nan
nan nan nan nan nan nan nan nan nan nan nan nan nan nan nan nan nan nan nan nan nan nan nan nan nan nan nan nan nan nan nan nan nan nan nan nan nan nan nan nan nan nan nan nan nan nan nan nan nan nan nan nan nan nan nan nan nan -0 -0 -0 -0 nan nan nan nan -0 -0 -0 -0 -0 -0 -0 -0 -0 -0 -0 -0 -0 -0 -0 -0 nan nan nan nan nan
nan nan nan nan nan nan nan nan nan nan nan nan nan nan nan nan nan nan nan nan nan nan nan nan nan nan nan nan nan nan nan nan nan nan nan nan nan nan nan nan nan nan nan nan nan nan nan nan nan nan nan nan nan nan nan -0 -0 -0 -0 -0 -0 nan nan -0 -0 -0 -0 -0 -0 -0 -0 -0 -0 -0 -0 -0 -0 -0 -0 -0 -0 -0 nan nan nan nan
nan nan nan nan nan nan nan nan nan nan nan nan nan nan nan nan nan nan nan nan nan nan nan nan nan nan nan nan nan nan nan nan nan nan nan nan nan nan nan nan nan nan nan nan nan nan nan nan nan nan nan nan nan nan nan -0 -0 -0 -0 -0 -0 -0 -0 -0 -0 -0 -0 -0 -0 -0 -0 -0 -0 -0 -0 -0 -0 -0 -0 -0 -0 -0 nan nan nan nan
nan nan nan nan nan nan nan nan nan nan nan nan nan nan nan nan nan nan nan nan nan nan nan nan nan nan nan nan nan nan nan nan nan nan nan nan nan nan nan nan nan nan nan nan nan nan nan nan nan nan nan nan nan nan nan -0 -0 -0 -0 -0 -0 -0 -0 -0 -0 -0 -0 -0 -0 -0 -0 -0 -0 -0 -0 -0 -0 -0 -0 -0 -0 -0 -0 nan nan nan
nan nan nan nan nan nan nan nan nan nan nan nan nan nan nan nan nan nan nan nan nan nan nan nan nan nan nan nan nan nan nan nan nan nan nan nan nan nan nan nan nan nan nan nan nan nan nan nan nan nan nan nan nan nan nan -0 -0 -0 -0 -0 -0 -0 -0 -0 -0 -0 -0 -0 -0 -0 -0 -0 -0 -0 -0 -0 -0 -0 -0 -0 -0 -0 -0 nan nan nan
nan nan nan nan nan nan nan nan nan nan nan nan nan nan nan nan nan nan nan nan nan nan nan nan nan nan nan nan nan nan nan nan nan nan nan nan nan nan nan nan nan nan nan nan nan nan nan nan nan nan nan nan nan nan nan -0 -0 -0 -0 -0 -0 -0 -0 -0 -0 -0 -0 -0 -0 -0 -0 -0 -0 -0 -0 -0 -0 -0 -0 -0 -0 -0 -0 -1 -1 nan
nan nan nan nan nan nan nan nan nan nan nan nan nan nan nan nan nan nan nan nan nan nan nan nan nan nan nan nan nan nan nan nan nan nan nan nan nan nan nan nan nan nan nan nan nan nan nan nan nan nan nan nan nan nan nan -0 -0 -0 -0 -0 -0 -0 -0 -0 -0 -0 -0 -0 -0 -0 -0 -0 -0 -0 -0 -0 -0 -0 -0 -0 -0 -0 -4 nan nan nan
nan nan nan nan nan -0 -0 -0 -0 -0 -0 -0 -0 -0 nan nan nan nan nan nan nan nan nan nan nan nan nan nan nan nan nan nan nan nan nan nan nan nan nan nan nan nan nan nan nan nan nan nan nan nan nan nan nan nan nan -0 -0 -0 -0 -0 -0 -0 -0 -0 -0 -0 -0 -0 -0 -0 -0 -0 -0 -0 -0 -0 -0 -0 -0 -0 -0 -0 nan nan nan nan
nan nan nan -0 -0 -0 -0 -2 -0 -0 -0 -0 -0 -0 nan nan nan nan nan nan nan nan nan nan nan nan nan nan nan nan nan nan nan nan nan nan nan nan nan nan nan nan nan nan nan nan nan nan nan nan nan nan nan nan nan nan nan nan -22 -0 -0 -0 -0 -0 -0 -0 -0 -0 -0 -0 -0 -0 -0 -0 -0 -0 -0 -0 -0 -0 -0 nan nan nan nan nan
nan nan nan nan nan nan nan nan -2 -2 -0 -0 -0 -0 nan nan nan nan nan nan nan nan nan nan nan nan nan nan nan nan nan nan nan nan nan nan nan nan nan nan nan nan nan nan nan nan nan nan nan nan nan nan nan nan nan nan nan nan nan nan nan -27 -0 -0 -0 -0 -0 -0 -0 -0 -0 -0 -0 -0 -0 -0 -0 -0 -0 -0 -0 nan nan nan nan nan
nan nan nan nan nan nan nan nan nan nan nan nan nan nan nan nan nan nan nan nan nan nan nan nan nan nan nan nan nan nan nan nan nan nan nan nan nan nan nan nan nan nan nan nan nan nan nan nan nan nan nan nan nan nan nan nan nan nan nan nan nan nan nan nan nan nan nan nan nan nan nan -0 -0 -0 -0 -0 -0 -0 -0 -0 -0 -16 nan nan nan nan
nan nan nan nan nan nan nan nan nan nan nan nan nan nan nan nan nan nan nan nan nan nan nan nan nan nan nan nan nan nan nan nan nan nan nan nan nan nan nan nan nan nan nan nan nan nan nan nan nan nan nan nan nan nan nan nan nan nan nan nan nan nan nan nan nan nan nan nan nan nan nan nan -0 -0 -0 -0 -0 -0 -0 -0 -0 -2 nan nan nan nan
nan nan nan nan nan nan nan nan nan nan nan nan nan nan nan nan nan nan nan nan nan nan nan nan nan nan nan nan nan nan nan nan nan nan nan nan nan nan nan nan nan nan nan nan nan nan nan nan nan nan nan nan nan nan nan nan nan nan nan nan nan nan nan nan nan nan nan nan nan nan nan nan nan nan nan -0 nan nan -0 -0 -0 -0 -0 nan nan nan
nan nan nan nan nan nan nan nan nan nan nan nan nan nan nan nan nan nan nan nan nan nan nan nan nan nan nan nan nan nan nan nan nan nan nan nan nan nan nan nan nan nan nan nan nan nan nan nan nan nan nan nan nan nan nan nan nan nan nan nan nan nan nan nan nan nan nan nan nan nan nan nan nan nan nan nan nan nan nan nan nan -0 -0 -0 -0 nan
nan nan nan nan nan nan nan nan nan nan nan nan nan nan nan nan nan nan nan nan nan nan nan nan nan nan nan nan nan nan nan nan nan nan nan nan nan nan nan nan nan nan nan nan nan nan nan nan nan nan nan nan nan nan nan nan nan nan nan nan nan nan nan nan nan nan nan nan nan nan nan nan nan nan nan nan nan nan nan -0 -0 -0 -0 -0 -0 -4
nan nan nan nan nan nan nan nan nan nan nan nan nan nan nan nan nan nan nan nan nan nan nan nan nan nan nan nan nan nan nan nan nan nan nan nan nan nan nan nan nan nan nan nan nan nan nan nan nan nan nan nan nan nan nan nan nan nan nan nan nan nan nan nan nan nan nan nan nan nan nan nan nan nan nan nan nan nan nan -0 -0 -0 -0 -0 -0 -0
nan nan nan nan nan nan nan nan nan nan nan nan nan nan nan nan nan nan nan nan nan nan nan nan nan nan nan nan nan nan nan nan nan nan nan nan nan nan nan nan nan nan nan nan nan nan nan nan nan nan nan nan nan nan nan nan nan nan nan nan nan nan nan nan nan nan nan nan nan nan nan nan nan nan nan nan nan nan nan nan nan nan nan nan nan -0
nan nan nan nan nan nan nan nan nan nan nan nan nan nan nan nan nan nan nan nan nan nan nan nan nan nan nan nan nan nan nan nan nan nan nan nan nan nan nan nan nan nan nan nan nan nan nan nan nan nan nan nan nan nan nan nan nan nan nan nan nan nan nan nan nan nan nan nan nan nan nan nan nan nan nan nan nan nan nan nan nan nan nan nan nan nan
nan nan nan nan nan nan nan nan nan nan nan nan nan nan nan nan nan nan nan nan nan nan nan nan nan nan nan nan nan nan nan nan nan nan nan nan nan nan nan nan nan nan nan nan nan nan nan nan nan nan nan nan nan nan nan nan nan nan nan nan nan nan nan nan nan nan nan nan nan nan nan nan nan nan nan nan nan nan nan nan nan nan nan nan nan nan
nan nan nan nan nan nan nan nan nan nan nan nan nan nan nan nan nan nan nan nan nan nan nan nan nan nan nan nan nan nan nan nan nan nan nan nan nan nan nan nan nan nan nan nan nan nan nan nan nan nan nan nan nan nan nan nan nan nan nan nan nan nan nan nan nan nan nan nan nan nan nan nan nan nan nan nan nan nan nan nan nan nan nan nan nan nan
nan nan nan nan nan nan nan nan nan nan nan nan nan nan nan nan nan nan nan nan nan nan nan nan nan nan nan nan nan nan nan nan nan nan nan nan nan nan nan nan nan nan nan nan nan nan nan nan nan nan nan nan nan nan nan nan nan nan nan nan nan nan nan nan nan nan nan nan nan nan nan nan nan nan nan nan nan nan nan nan nan nan nan nan nan nan
nan nan nan nan nan nan nan nan nan nan nan nan nan nan nan nan nan nan nan nan nan nan nan nan nan nan nan nan nan nan nan nan nan nan nan nan nan nan nan nan nan nan nan nan nan nan nan nan nan nan nan nan nan nan nan nan nan nan nan nan nan nan nan nan nan nan nan nan nan nan nan nan nan nan nan nan nan nan nan nan nan nan nan nan nan nan
nan nan nan nan nan nan nan nan nan nan nan nan nan nan nan nan nan nan nan nan nan nan nan nan nan nan nan nan nan nan nan nan nan nan nan nan nan nan nan nan nan nan nan nan nan nan nan nan nan nan nan nan nan nan nan nan nan nan nan nan nan nan nan nan nan nan nan nan nan nan nan nan nan nan nan nan nan nan nan nan nan nan nan nan nan nan
nan nan nan nan nan nan nan nan nan nan nan nan nan nan nan nan nan nan nan nan nan nan nan nan nan nan nan nan nan nan nan nan nan nan nan nan nan nan nan nan nan nan nan nan nan nan nan nan nan nan nan nan nan nan nan nan nan nan nan nan nan nan nan nan nan nan nan nan nan nan nan nan nan nan nan nan nan nan nan nan nan nan nan nan nan nan
nan nan nan nan nan nan nan nan nan nan nan nan nan nan nan nan nan nan nan nan nan nan nan nan nan nan nan nan nan nan nan nan nan nan nan nan nan nan nan nan nan nan nan nan nan nan nan nan nan nan nan nan nan nan nan nan nan nan nan nan nan nan nan nan nan nan nan nan nan nan nan nan nan nan nan nan nan nan nan nan nan nan nan nan nan nan
nan nan nan nan nan nan nan nan nan nan nan nan nan nan nan nan nan nan nan nan nan nan nan nan nan nan nan nan nan nan nan nan nan nan nan nan nan nan nan nan nan nan nan nan nan nan nan nan nan nan nan nan nan nan nan nan nan nan nan nan nan nan nan nan nan nan nan nan nan nan nan nan nan nan nan nan nan nan nan nan nan nan nan nan nan nan
nan nan nan nan nan nan nan nan nan nan nan nan nan nan nan nan nan nan nan nan nan nan nan nan nan nan nan nan nan nan nan nan nan nan nan nan nan nan nan nan nan nan nan nan nan nan nan nan nan nan nan nan nan nan nan nan nan nan nan nan nan nan nan nan nan nan nan nan nan nan nan nan nan nan nan nan nan nan nan nan nan nan nan nan nan nan
nan nan nan nan nan nan nan nan nan nan nan nan nan nan nan nan nan nan nan nan nan nan nan nan nan nan nan nan nan nan nan nan nan nan nan nan nan nan nan nan nan nan nan nan nan nan nan nan nan nan nan nan nan nan nan nan nan nan nan nan nan nan nan nan nan nan nan nan nan nan nan nan nan nan nan nan nan nan nan nan nan nan nan nan nan nan
nan nan nan nan nan nan nan nan nan nan nan nan nan nan nan nan nan nan nan nan nan nan nan nan nan nan nan nan nan nan nan nan nan nan nan nan nan nan nan nan nan nan nan nan nan nan nan nan nan nan nan nan nan nan nan nan nan nan nan nan nan nan nan nan nan nan nan nan nan nan nan nan nan nan nan nan nan nan nan nan nan nan nan nan nan nan
nan nan nan nan nan nan nan nan nan nan nan nan nan nan nan nan nan nan nan nan nan nan nan nan nan nan nan nan nan nan nan nan nan nan nan nan nan nan nan nan nan nan nan nan nan nan nan nan nan nan nan nan nan nan nan nan nan nan nan nan nan nan nan nan nan nan nan nan nan nan nan nan nan nan nan nan nan nan nan nan nan nan nan nan nan nan
Wind_Speed
2 2 2 3 4 3 3 4 5 5 4 3 2 2 2 3 3 3 3 4 5 5 5 5 6 6 8 12 14 15 15 15 14 14 13 12 12 11 11 11 10 10 10 9 9 9 9 9 9 9 9 9 9 9 9 9 9 9 9 8 8 7 6 6 6 6 7 7 8 8 8 8 8 8 8 8 8 8 8 7 7 6 6 5 5 5
2 2 2 3 3 3 3 4 5 5 4 4 3 2 2 3 3 2 3 3 3 4 5 5 6 6 7 9 12 14 15 15 14 14 13 13 12 11 11 11 10 10 10 9 9 9 9 9 8 8 8 8 8 8 8 8 8 9 9 9 9 8 8 8 8 8 8 9 9 9 8 8 8 8 7 7 7 7 7 7 6 6 6 5 5 5
2 2 2 2 3 3 3 4 4 4 4 4 4 3 3 3 3 2 2 2 2 3 4 5 6 6 6 8 11 14 14 14 14 14 14 13 12 12 11 11 11 10 10 10 9 9 9 8 8 8 8 8 8 8 8 8 8 8 8 8 8 8 9 9 9 9 9 9 9 8 8 8 7 7 7 7 7 7 7 6 6 6 5 5 5 4
3 3 3 2 2 2 2 3 4 4 4 4 4 4 4 3 3 2 2 2 2 3 3 5 5 5 5 6 9 12 14 14 14 14 14 13 13 12 12 11 11 10 10 10 9 9 9 9 8 8 8 8 8 8 7 7 7 7 7 7 7 8 8 8 8 9 9 8 8 8 8 7 7 7 7 7 6 6 6 6 5 5 5 4 4 4
3 3 3 2 2 2 2 3 4 4 4 4 4 4 3 3 2 2 2 2 3 3 3 4 4 5 4 5 7 11 13 14 14 14 14 13 13 12 12 12 11 11 10 10 9 9 9 9 8 8 8 8 8 8 7 7 7 6 6 6 6 6 7 7 7 7 7 7 7 7 7 7 7 7 6 6 6 6 6 5 5 5 5 4 4 4
3 3 3 2 2 2 2 2 3 4 4 3 3 3 3 2 2 2 2 2 2 3 2 2 3 4 4 4 7 10 13 14 14 14 13 13 13 13 12 12 11 11 10 10 9 9 9 8 8 8 8 8 8 7 7 7 7 6 6 5 5 5 5 6 6 6 6 6 6 6 6 6 6 6 6 6 6 5 5 5 5 5 4 4 3 3
3 2 2 2 1 1 1 2 3 3 3 3 3 3 2 2 2 2 2 2 2 2 2 2 2 3 3 4 7 10 11 13 13 13 13 13 13 13 12 12 11 11 10 9 9 9 8 8 8 8 8 8 8 7 7 7 6 6 6 5 5 5 5 5 5 5 5 5 5 6 6 6 6 6 6 6 6 5 5 5 5 4 4 3 3 3
3 3 2 2 1 1 1 2 2 3 3 3 3 3 2 2 2 2 2 2 2 2 2 2 2 2 2 3 5 7 8 9 9 10 11 11 12 12 12 12 11 11 10 9 9 8 8 8 8 8 8 7 7 7 7 7 6 6 6 5 5 5 5 5 5 5 5 5 5 5 5 5 5 6 6 6 6 5 5 5 4 4 4 3 2 2
5 4 3 2 2 2 2 1 2 2 3 3 3 3 3 2 2 2 2 2 2 1 1 2 2 2 2 2 3 4 6 6 6 6 6 7 7 9 10 11 11 10 10 9 9 8 8 8 8 8 7 7 7 7 6 6 6 6 6 5 5 5 5 5 5 4 4 4 4 4 5 5 5 5 6 6 5 5 5 5 4 4 3 3 2 2
5 5 4 3 2 2 2 2 2 2 3 3 3 3 3 3 3 3 2 1 1 1 1 2 2 2 2 2 3 4 5 6 7 8 8 7 7 8 9 9 9 9 9 9 9 8 8 8 8 7 7 7 7 6 6 6 5 5 5 5 5 5 5 5 5 4 4 4 4 4 4 5 5 5 5 5 5 5 5 4 4 4 3 3 2 2
4 4 4 3 2 1 2 2 2 2 3 3 2 2 2 3 4 4 4 3 2 1 1 1 2 2 2 3 3 3 3 4 5 6 8 9 9 9 9 9 9 9 9 8 8 8 8 7 7 7 7 7 6 6 5 5 5 5 5 5 5 5 5 5 5 4 4 4 4 4 4 4 5 5 5 5 5 5 4 4 4 3 3 3 3 2
4 3 3 3 2 2 2 2 2 2 3 3 3 2 2 2 3 4 5 5 4 3 2 1 1 1 1 1 2 3 3 3 3 3 3 4 5 6 7 7 7 7 7 7 7 7 7 7 7 7 7 6 6 6 5 4 4 4 5 5 5 5 5 5 4 4 4 4 4 4 4 4 5 5 5 5 5 5 4 4 3 3 3 4 4 3
3 3 3 3 3 3 3 2 2 2 3 3 4 4 4 4 3 3 4 4 4 4 3 2 1 2 2 1 1 2 3 3 3 3 2 2 2 3 3 3 3 3 3 3 3 3 5 6 6 6 6 6 6 5 5 4 4 4 4 4 4 4 4 4 4 4 4 4 4 4 4 5 5 5 6 6 5 5 4 4 3 3 4 4 5 5
3 3 3 3 3 3 3 4 4 4 4 4 4 4 4 4 4 3 3 3 3 3 3 3 2 1 1 2 1 1 3 3 3 3 3 2 2 2 2 3 3 2 2 2 2 1 3 4 4 4 5 5 5 5 4 4 4 4 4 4 4 4 4 4 3 3 3 4 4 4 5 5 5 6 6 6 6 5 5 4 4 4 4 5 6 6
4 4 4 4 4 4 4 4 5 5 5 4 3 3 4 4 4 4 4 4 4 3 3 2 2 1 1 1 1 0 2 3 4 3 3 1 1 1 2 3 3 2 2 2 1 1 2 2 2 2 2 3 3 3 4 4 4 4 4 4 4 4 4 3 3 3 3 3 4 4 5 5 6 6 6 6 6 5 5 5 4 4 5 5 6 7
4 5 5 5 5 4 4 4 4 4 4 4 4 4 5 5 5 5 5 5 4 4 3 3 2 1 1 1 1 0 1 3 4 4 4 2 0 1 2 3 3 2 2 2 1 1 0 1 1 1 1 3 4 5 5 5 5 5 5 5 4 4 4 3 3 3 3 3 3 4 5 5 6 6 6 6 6 6 5 5 5 5 5 5 6 7
4 5 5 5 5 4 4 4 4 4 4 4 4 4 5 5 6 5 5 5 4 4 4 4 4 3 2 1 1 2 2 3 4 4 4 3 1 0 2 3 3 3 2 2 1 1 1 1 1 1 2 4 5 5 5 5 5 5 5 5 5 4 4 3 3 3 3 3 3 4 5 5 6 6 6 6 6 5 5 5 5 5 5 5 6 7
5 5 5 5 5 5 5 5 4 4 4 4 4 4 4 4 5 5 5 5 5 5 5 5 5 4 4 3 3 3 3 3 4 5 4 3 2 0 1 2 3 3 2 2 1 1 1 1 1 2 3 5 6 5 5 5 5 5 5 5 5 5 4 4 3 4 4 4 4 4 5 5 6 6 6 6 6 5 5 5 5 5 5 5 6 6
5 5 5 4 4 4 5 5 5 5 5 5 5 4 4 4 4 4 5 5 5 6 6 6 5 4 4 4 4 4 4 4 4 5 5 4 2 1 0 1 2 3 3 2 2 1 1 1 2 3 5 6 6 5 5 5 5 5 5 5 5 5 4 4 4 4 4 5 5 5 5 5 5 6 6 6 5 5 5 5 5 5 5 5 5 5
5 5 5 4 4 5 5 6 6 6 6 6 5 5 5 5 5 5 5 5 5 5 4 5 5 5 3 3 4 5 5 4 4 4 4 4 3 2 1 2 3 3 3 2 2 1 1 1 1 3 5 6 6 5 5 5 5 5 6 5 5 5 4 4 4 4 5 5 5 5 5 5 5 5 5 5 5 5 5 5 5 5 5 5 5 5
4 5 4 4 4 5 5 6 6 7 8 7 7 6 5 5 5 5 5 5 5 5 5 5 5 3 2 3 4 6 7 6 5 4 3 3 2 2 2 2 3 3 3 2 2 1 1 1 1 2 4 5 6 6 5 5 5 5 6 6 5 5 4 4 4 5 5 6 6 6 6 5 5 5 5 5 5 5 5 5 5 5 5 5 5 5
4 4 4 4 4 4 4 5 7 8 9 9 8 7 6 6 6 6 5 5 5 5 5 3 1 1 1 2 4 6 8 7 6 4 4 3 2 2 2 2 3 3 3 2 2 1 1 1 1 2 4 6 7 6 6 5 6 6 6 6 5 5 5 4 4 5 5 6 6 6 6 6 5 5 5 5 5 5 5 5 5 5 5 5 5 5
3 3 2 2 2 2 3 4 6 7 8 8 8 7 6 6 7 6 6 6 5 4 3 2 2 2 2 2 3 4 5 4 3 3 4 4 3 3 2 2 3 3 3 2 2 1 1 1 1 2 4 6 7 7 6 6 6 6 6 6 6 6 5 5 5 5 6 6 6 6 6 6 5 5 5 5 5 4 5 5 5 5 5 5 5 4
3 3 3 2 2 2 3 4 5 6 6 6 5 5 5 5 5 4 4 4 4 4 4 4 3 3 3 3 3 2 1 1 1 2 3 4 3 3 3 3 3 3 2 2 2 2 2 1 1 1 2 5 7 7 7 6 6 6 6 6 6 6 6 6 5 5 6 6 6 6 6 6 6 5 5 5 5 4 4 5 5 5 5 5 4 4
4 4 3 3 4 4 4 5 6 6 6 5 4 4 4 5 5 4 4 5 5 5 5 4 3 3 2 2 2 2 1 1 1 2 3 3 3 2 3 3 3 3 2 1 1 2 2 1 1 1 1 3 5 7 7 7 7 7 7 7 6 6 6 6 6 6 6 6 6 6 6 6 6 5 5 5 5 5 5 5 4 5 5 4 4 4
5 6 6 6 7 8 8 9 9 10 9 7 6 5 5 6 6 5 5 5 5 5 5 4 3 3 2 2 2 2 1 0 1 1 2 3 3 3 2 2 2 3 3 1 1 2 2 2 1 1 1 2 4 6 7 7 7 7 7 7 7 7 7 7 6 6 6 6 6 6 6 6 6 5 5 5 5 5 5 5 5 4 4 4 4 3
9 9 10 10 10 10 11 12 12 13 13 11 10 8 7 7 6 6 5 5 6 6 6 5 4 3 2 2 2 2 2 1 1 1 2 4 4 3 2 2 2 3 3 2 1 1 2 2 2 2 2 2 3 4 7 7 8 8 8 8 8 7 7 7 7 6 6 6 6 6 6 6 6 5 5 5 5 5 5 5 4 4 4 4 3 2
10 10 10 10 10 11 12 13 13 14 14 14 14 13 10 8 7 7 6 6 6 6 6 5 4 4 3 3 3 2 2 2 2 2 2 3 3 3 3 2 3 3 3 2 1 0 1 1 2 2 2 1 1 2 5 7 8 8 8 8 8 8 8 7 7 7 7 6 6 6 6 6 6 5 5 5 5 5 5 5 4 4 3 3 2 1
9 9 9 10 10 11 12 12 13 14 14 15 15 13 10 7 6 7 6 6 6 6 6 5 5 4 3 3 2 1 2 3 3 3 3 3 3 3 3 3 3 3 3 2 1 1 1 0 0 1 1 2 1 1 1 4 6 6 8 8 9 8 8 8 8 7 7 7 6 6 6 6 6 5 5 5 5 5 5 5 4 4 3 2 1 1
6 7 7 7 8 8 8 8 10 12 14 15 14 11 7 5 4 5 6 6 7 7 6 5 5 4 4 3 3 2 2 4 4 3 4 4 3 3 3 3 3 3 3 3 2 1 1 1 1 0 1 2 2 1 0 1 1 2 3 5 7 7 8 8 8 7 7 7 6 6 6 6 5 5 5 5 5 5 5 5 5 3 2 2 1 1
4 4 4 4 4 4 5 5 6 8 10 11 9 7 4 3 3 4 5 6 6 6 6 5 5 5 5 4 4 3 3 4 4 4 4 4 4 4 5 4 4 3 3 3 3 2 1 1 1 1 1 2 2 1 1 1 1 2 2 2 3 4 7 7 7 7 6 6 6 6 5 5 5 5 5 5 5 5 5 5 5 3 2 2 2 1
4 4 4 3 3 3 3 4 4 4 5 5 5 4 4 3 3 3 4 5 5 5 4 4 5 5 5 4 4 4 3 4 5 6 5 4 3 3 4 4 4 3 2 2 3 3 3 2 1 1 0 1 1 1 1 1 1 2 2 2 2 2 6 6 6 5 5 5 5 5 5 5 5 5 5 5 5 5 5 5 5 3 2 2 2 1
4 4 4 4 4 3 3 4 4 4 4 4 4 3 4 4 3 3 2 2 3 3 4 5 5 5 5 4 3 2 2 3 5 7 7 5 3 3 3 4 4 3 1 1 2 3 3 2 2 1 1 1 1 1 1 1 2 2 2 2 2 2 4 4 4 3 3 3 4 4 5 5 5 6 6 6 6 6 5 5 5 4 2 2 1 1
5 5 4 4 4 4 4 4 4 4 4 4 4 4 3 4 4 4 3 3 2 2 3 4 5 5 5 3 2 1 1 2 5 8 8 5 4 3 4 4 4 4 3 2 2 2 2 2 3 2 1 1 1 1 1 1 2 2 2 2 2 2 2 2 2 2 2 2 1 2 2 3 4 5 6 6 6 6 6 6 5 5 4 3 2 2
5 5 5 4 4 4 4 4 4 4 4 4 4 4 4 4 4 4 4 3 3 3 2 2 3 4 5 4 4 3 2 3 6 8 8 5 4 4 4 4 5 5 4 3 2 2 2 2 3 3 3 2 1 1 1 1 1 1 2 2 2 2 2 2 2 2 2 1 1 1 1 1 2 3 4 5 6 6 6 6 6 6 6 5 4 3
5 5 5 4 4 4 4 4 4 4 4 4 3 3 4 4 4 4 4 4 4 4 4 3 2 2 3 4 4 4 4 4 7 8 8 5 4 4 4 4 5 5 5 4 3 3 3 3 3 4 4 3 2 1 2 1 1 1 1 1 1 1 1 2 2 2 2 2 1 1 1 1 1 2 2 5 6 7 7 7 7 7 6 6 6 5
5 5 4 4 4 4 5 4 4 4 4 3 3 3 4 4 4 4 4 4 4 4 4 4 4 3 3 3 3 4 4 5 6 7 6 5 4 4 4 4 5 5 5 5 4 4 4 4 4 4 3 3 3 2 2 2 2 2 2 1 1 1 1 1 2 3 3 2 2 2 1 2 2 2 2 5 6 6 6 7 6 6 6 6 6 6
5 5 5 4 4 4 4 4 4 4 4 4 4 4 4 4 4 4 4 4 4 5 5 4 5 5 7 6 5 5 5 5 5 5 5 4 4 4 4 4 4 5 5 5 5 5 4 4 4 4 3 2 2 2 3 3 3 3 3 2 1 1 1 1 2 2 2 2 2 2 2 2 2 2 2 2 2 2 2 2 3 4 5 5 5 6
5 5 5 5 5 4 4 4 4 4 4 4 4 4 4 5 5 5 5 5 5 5 5 5 5 5 7 8 8 8 7 5 4 4 4 3 3 3 4 4 5 5 4 4 4 4 5 5 5 5 4 3 2 2 2 3 4 4 3 1 0 1 1 2 2 3 3 3 2 2 2 1 2 2 2 1 1 2 1 1 1 2 2 1 2 4
5 5 5 5 5 4 4 5 5 5 5 5 5 5 5 5 5 5 5 5 5 5 5 6 6 6 6 7 7 7 6 5 4 4 3 2 2 2 4 5 5 5 4 3 3 4 4 4 4 4 4 4 3 3 3 3 3 4 4 2 1 2 3 3 3 3 3 3 3 3 2 1 2 2 2 2 2 2 2 2 2 2 2 2 1 1
5 5 5 5 4 4 5 5 5 5 5 5 5 5 4 5 4 4 4 4 4 4 4 5 5 6 6 6 5 5 5 5 5 4 2 2 2 2 3 4 5 5 5 3 3 3 4 4 4 4 3 3 3 3 3 4 5 6 6 4 3 3 3 4 4 4 3 3 3 3 3 2 2 2 2 2 2 2 3 3 2 2 2 2 3 3
6 5 4 4 4 4 4 5 5 6 6 5 5 4 4 4 4 4 4 3 3 3 3 3 4 4 5 4 4 5 5 5 4 4 3 3 2 3 3 4 4 4 4 4 3 3 3 4 4 4 3 4 4 3 3 3 5 6 6 4 3 2 2 3 3 3 4 3 3 3 3 3 2 2 3 2 2 2 2 2 3 3 3 2 2 3
5 5 4 4 5 5 6 6 6 6 5 5 4 4 4 4 4 5 5 4 4 4 3 3 3 4 4 3 3 3 4 4 4 4 4 3 3 3 3 3 3 4 4 4 3 3 2 2 3 3 3 4 4 4 4 4 4 5 5 5 4 3 1 2 2 3 3 3 3 2 2 2 2 2 2 2 1 1 1 2 2 3 3 3 2 2
5 4 4 4 5 5 5 5 5 5 5 5 4 4 3 3 4 4 4 4 4 4 4 3 3 4 4 3 2 2 2 4 4 4 4 4 4 3 3 3 3 3 3 4 4 3 2 2 2 1 2 3 4 4 4 4 4 4 4 5 5 4 3 3 3 4 3 3 3 2 2 2 2 2 1 1 0 0 1 1 1 1 1 2 2 2
5 5 5 5 5 5 5 5 5 5 5 5 5 4 4 4 4 4 4 4 4 4 4 4 4 4 3 3 2 2 1 2 3 3 4 5 5 5 4 3 3 3 4 4 4 4 4 3 2 1 1 2 3 4 4 4 5 4 4 4 3 3 2 3 4 4 4 4 3 2 2 2 2 2 1 0 1 1 1 1 1 2 1 1 1 2
5 5 5 5 5 5 6 6 5 5 5 5 5 4 4 4 3 4 4 5 5 4 3 3 4 4 4 4 3 3 2 1 1 1 2 3 4 4 4 4 4 4 4 4 3 3 4 4 3 3 2 2 2 2 3 4 4 4 4 4 3 2 1 2 3 4 5 4 4 3 3 3 3 2 2 1 1 1 1 2 2 3 3 2 2 3
6 6 6 5 5 5 5 5 5 5 5 5 5 4 4 3 4 4 4 4 4 4 3 3 3 4 4 5 4 4 4 3 3 1 0 1 2 2 3 4 4 5 4 4 4 4 3 3 3 4 4 3 2 1 1 2 3 4 4 3 3 2 2 2 2 3 4 5 4 4 3 3 3 2 2 1 1 1 2 2 3 3 4 4 4 4
7 7 7 6 6 6 6 5 5 5 5 5 4 4 3 4 5 5 4 4 4 4 4 3 3 4 4 4 4 5 5 5 4 4 3 1 1 1 2 3 3 4 4 5 5 4 3 3 3 3 4 4 3 3 2 2 2 3 3 3 3 3 2 2 2 3 4 4 5 5 5 4 3 3 3 2 1 1 2 2 3 3 4 4 4 4
7 7 7 7 6 6 6 6 6 6 6 5 5 4 3 4 6 6 4 4 4 4 4 4 4 4 4 4 4 5 5 5 4 4 4 3 2 2 2 2 2 3 4 4 4 4 3 3 2 2 3 4 4 4 3 3 3 2 2 3 3 3 3 2 2 3 3 4 4 5 5 4 3 3 4 3 2 1 2 2 3 3 4 4 4 4
7 7 7 7 7 7 7 7 6 6 6 6 6 5 4 3 3 3 3 4 4 4 4 4 4 5 5 5 5 5 5 5 4 4 4 3 3 3 3 2 2 3 3 3 3 3 3 3 3 1 2 4 4 4 4 3 3 2 2 2 3 3 3 2 2 3 4 4 4 4 4 3 3 3 4 3 2 1 2 2 3 3 3 4 4 4
7 7 7 7 7 7 7 7 7 7 7 7 6 5 5 4 3 3 3 3 4 4 3 4 4 4 5 5 6 6 6 5 5 5 5 4 4 4 4 3 3 3 3 2 2 2 2 2 2 3 3 5 6 7 4 4 4 3 2 2 2 2 3 2 2 3 4 4 4 4 4 3 3 3 3 3 2 1 1 2 2 3 3 3 4 4
Wind_Direction
98 114 120 129 131 133 140 139 136 131 127 116 100 88 77 72 66 70 88 109 122 128 130 130 131 132 132 134 133 133 132 131 129 127 124 122 120 117 114 112 109 105 102 98 95 91 87 82 78 73 68 63 59 56 52 50 48 47 46 48 53 60 71 84 96 104 106 105 103 101 99 97 93 89 85 81 77 73 68 64 58 52 44 36 29 24
107 112 119 134 137 138 141 143 141 138 137 131 126 117 104 92 78 63 59 80 105 124 132 132 133 134 134 136 136 137 136 134 132 129 127 125 123 121 118 115 113 110 107 103 99 96 91 87 82 77 73 68 63 58 54 51 48 46 44 45 46 49 54 60 67 75 83 86 89 91 93 94 93 92 89 85 80 75 69 63 57 49 41 33 26 22
138 135 142 145 147 147 144 144 142 138 136 135 134 128 116 106 93 76 62 64 82 108 127 133 135 135 137 139 141 141 140 137 134 132 131 129 128 125 122 119 116 113 110 107 103 100 95 91 87 82 77 72 67 63 58 55 52 49 47 46 47 49 52 56 60 66 72 76 80 84 87 89 92 92 91 87 82 77 70 63 55 48 40 30 23 17
152 153 159 152 150 148 143 141 137 133 130 128 124 118 109 104 95 82 67 68 78 94 115 130 135 137 139 142 145 145 143 139 137 135 135 133 131 129 125 122 119 116 114 110 107 104 100 95 90 86 81 76 71 66 62 59 56 54 51 51 52 54 57 59 62 66 69 72 76 78 81 85 87 88 89 88 84 80 74 66 58 49 41 31 22 14
161 161 160 153 145 136 127 129 129 127 122 117 109 102 94 93 89 79 65 68 75 85 100 122 133 139 141 145 148 147 144 141 140 138 137 136 134 131 128 125 122 120 117 115 112 108 104 100 95 90 85 80 75 70 66 64 61 59 57 56 58 60 64 66 68 69 71 72 74 76 79 80 81 83 84 84 84 81 77 70 62 54 45 34 22 13
164 161 158 150 137 123 114 126 130 129 122 110 100 91 84 81 80 76 70 72 75 79 84 104 124 136 142 147 149 148 145 142 141 140 139 138 135 133 130 128 125 123 121 119 117 114 110 106 101 95 90 84 80 75 71 68 66 65 63 62 64 66 71 73 73 74 73 73 74 76 78 79 79 78 78 79 79 78 76 71 65 58 50 39 26 14
154 153 148 131 112 100 103 128 139 140 135 125 110 95 81 71 67 67 67 72 79 81 80 84 100 121 138 146 148 146 144 143 142 142 141 139 138 135 132 131 129 127 125 124 122 119 116 111 107 101 96 90 85 80 76 73 70 69 67 67 68 71 75 78 78 78 76 76 76 78 80 81 80 79 76 74 73 71 70 69 65 60 53 45 33 18
147 148 146 127 110 97 97 123 142 148 146 140 132 123 106 84 69 62 56 54 64 79 90 89 93 105 126 140 143 142 141 141 142 142 142 141 139 137 135 133 131 130 129 128 126 124 121 117 113 107 102 96 91 85 80 77 74 71 70 70 70 72 75 78 80 80 80 80 80 82 84 86 85 84 80 75 71 67 64 63 61 58 53 47 39 27
151 153 157 149 143 136 131 136 148 153 151 147 146 144 139 129 111 82 59 46 42 57 99 111 113 111 116 127 132 135 137 138 140 141 139 138 138 137 135 134 133 132 132 131 130 129 127 123 118 113 107 102 96 91 86 82 78 75 73 72 72 73 74 77 79 80 81 83 85 87 90 91 91 90 87 80 75 69 63 60 55 51 44 38 34 31
152 154 155 154 152 150 149 150 152 153 151 144 144 145 145 145 142 133 114 85 35 20 87 120 124 125 122 123 129 133 136 139 142 143 140 139 137 135 134 133 133 133 134 134 133 133 131 127 123 118 113 107 102 97 92 88 83 80 77 75 74 74 75 77 80 82 85 87 89 92 95 96 97 96 94 89 83 77 69 61 52 42 29 22 19 23
151 151 148 145 141 136 132 137 140 141 141 130 122 121 137 150 153 153 156 160 166 158 104 95 102 114 125 134 135 132 128 129 136 141 142 141 139 136 134 133 133 134 134 134 134 134 133 130 126 122 117 113 108 104 99 95 91 86 83 80 77 76 76 79 83 87 92 95 98 101 103 104 105 104 102 98 94 88 80 69 56 39 21 11 8 14
152 150 145 142 138 128 112 108 111 123 136 135 135 140 161 173 169 164 165 167 168 163 145 97 53 38 63 125 131 125 113 105 107 116 126 129 132 132 129 127 126 126 125 126 128 129 131 131 128 125 121 117 114 111 108 103 99 95 91 88 84 81 79 80 84 90 96 102 107 110 113 113 113 111 109 107 104 100 94 83 67 46 26 14 12 15
149 146 142 143 146 146 140 133 133 142 160 165 167 170 174 177 175 170 165 166 164 160 147 122 68 14 357 19 96 125 124 116 110 103 93 86 90 99 106 104 100 99 100 100 100 109 123 125 126 125 124 123 121 119 118 116 112 109 104 99 95 90 85 83 84 88 96 104 112 118 122 121 120 117 115 112 111 108 104 95 79 59 37 27 23 23
150 146 145 151 158 162 161 159 162 169 179 183 181 176 167 163 163 161 153 153 150 143 132 122 101 43 354 356 13 102 134 130 122 110 97 80 68 78 97 98 96 89 82 78 69 74 100 108 115 121 125 125 126 127 131 128 126 122 119 114 109 104 96 91 89 89 94 103 113 120 125 124 123 120 117 114 113 111 108 100 86 68 50 39 33 31
157 156 159 166 170 171 171 172 175 178 182 181 173 160 143 149 156 159 155 151 144 135 125 122 107 65 347 339 343 10 137 139 134 125 116 94 52 52 89 103 105 97 88 96 102 98 81 92 102 116 122 136 145 150 151 146 141 136 133 128 123 117 112 107 101 98 97 104 114 121 125 126 124 121 118 116 113 110 107 100 88 74 60 49 42 39
163 164 169 173 175 175 177 178 179 180 177 172 164 155 150 158 164 167 163 155 149 145 146 149 152 168 279 287 288 257 165 149 145 141 135 130 72 22 74 106 113 113 100 115 134 153 77 87 111 141 154 157 156 155 154 154 151 147 143 138 133 128 125 125 122 119 115 116 119 123 126 127 126 123 121 117 114 111 107 101 91 80 69 58 51 47
169 172 175 174 175 176 176 179 180 178 169 167 166 165 164 166 167 167 163 155 152 156 168 170 174 180 194 214 233 231 204 163 152 147 142 150 169 337 63 109 125 134 126 135 154 172 173 151 153 170 178 163 157 152 151 152 152 152 149 145 140 136 134 138 142 144 142 136 132 130 130 130 129 127 125 120 118 114 110 104 96 87 78 69 61 56
175 178 177 176 175 172 170 176 179 176 165 165 167 168 168 168 166 164 162 159 161 168 177 183 187 187 178 181 189 196 197 173 157 151 150 161 182 250 42 99 123 135 138 153 172 184 175 175 180 181 173 159 155 152 151 153 154 154 152 147 142 139 140 146 154 158 159 153 147 141 137 135 133 132 129 126 123 119 115 110 103 95 86 78 72 67
179 180 179 179 173 168 168 175 177 174 169 168 166 165 166 168 167 166 167 168 172 176 180 188 195 198 193 179 170 169 181 176 163 155 157 165 182 216 13 107 124 135 142 161 177 186 178 181 182 175 164 157 156 156 156 157 158 157 153 149 145 143 143 153 162 167 166 163 158 152 146 142 139 137 135 132 130 126 122 117 110 104 96 89 83 78
176 180 182 177 169 166 173 179 179 176 172 167 164 164 169 170 172 173 174 176 179 182 182 189 197 201 198 161 146 152 171 174 167 157 155 157 174 199 202 147 142 145 152 173 191 195 164 156 154 156 158 159 160 161 163 164 162 159 155 151 148 147 151 160 168 171 169 166 163 160 155 151 147 145 142 139 137 134 129 124 118 112 105 98 93 88
169 180 186 177 172 172 178 180 179 175 168 161 159 163 170 171 174 178 178 177 180 183 187 195 197 192 170 147 148 157 168 171 169 160 144 141 164 198 203 165 151 150 157 178 195 193 148 141 148 164 168 166 167 169 171 170 166 161 156 153 151 153 157 165 170 170 167 165 164 162 161 157 154 151 148 145 143 139 135 131 125 119 113 107 102 97
160 172 179 179 181 182 178 172 171 169 162 157 160 168 174 174 177 180 178 176 178 183 189 191 183 121 101 135 152 162 170 174 172 161 136 141 167 202 209 168 147 146 155 176 193 190 144 146 163 181 184 178 176 175 176 174 169 163 158 155 156 158 163 169 169 167 163 162 161 161 160 157 154 151 148 145 143 140 137 133 129 124 119 114 109 104
136 138 134 143 157 162 155 152 157 160 159 161 167 173 173 175 177 178 175 175 173 166 143 120 81 43 50 92 131 153 168 173 165 151 139 153 173 194 203 164 145 145 157 173 182 177 144 153 182 198 196 184 181 180 179 176 171 164 159 158 159 162 166 168 167 164 160 159 158 158 157 154 151 148 146 142 140 137 135 133 130 127 124 119 114 109
110 106 97 94 100 111 122 135 146 154 160 165 167 166 161 163 164 162 159 153 140 124 110 106 92 72 61 86 111 132 151 104 111 132 147 155 163 174 184 160 149 148 157 169 167 155 140 158 194 213 213 188 184 182 181 179 172 165 160 161 163 165 168 168 166 162 160 158 158 157 156 154 152 150 148 145 142 139 135 133 131 128 126 121 116 111
104 106 110 114 118 122 129 138 146 152 156 156 150 140 130 127 119 111 106 108 112 115 120 116 111 105 104 124 141 157 185 42 74 120 144 139 141 154 175 159 147 144 151 165 157 141 133 155 191 224 229 194 187 185 185 182 175 168 162 164 166 168 168 167 165 162 161 160 159 159 159 158 157 156 155 153 150 147 142 138 134 131 127 123 118 113
114 119 124 125 127 130 134 140 146 150 152 148 142 134 126 119 114 109 109 117 126 132 135 136 139 143 145 153 170 185 200 66 69 100 126 126 134 151 184 161 138 131 135 142 145 140 140 159 184 208 207 204 194 191 190 186 178 170 165 167 169 171 170 168 166 164 163 162 161 161 161 161 161 160 160 160 158 155 152 147 142 136 130 125 120 118
120 123 124 127 129 133 137 142 146 148 150 148 145 142 136 131 129 133 142 150 153 153 155 159 157 152 151 168 184 192 190 173 140 113 119 122 133 151 186 168 136 123 125 130 147 158 155 162 173 186 190 212 209 200 194 187 180 173 169 171 173 173 172 170 168 166 166 165 164 163 163 162 162 162 162 162 162 161 158 154 148 142 132 122 118 119
124 126 128 131 135 138 142 145 147 149 150 150 149 148 146 144 148 156 165 164 163 164 169 169 163 157 162 174 181 185 182 190 189 172 135 122 132 152 179 164 136 123 123 123 118 119 132 150 165 177 188 196 207 204 197 187 180 176 174 175 176 176 175 173 171 170 168 167 166 165 165 164 164 164 164 164 164 164 162 158 152 143 129 117 109 114
123 127 130 134 139 142 145 147 149 152 154 154 155 156 156 156 161 166 167 163 164 170 178 176 168 158 153 150 143 147 190 205 198 176 139 123 132 152 167 150 136 128 125 115 82 29 8 350 211 184 177 164 153 163 199 183 178 175 177 178 178 177 175 174 173 171 169 167 166 165 165 165 165 165 166 167 167 167 166 164 157 147 125 117 118 129
116 120 124 130 134 138 141 144 149 154 157 157 159 160 160 161 163 162 157 161 167 174 180 175 165 152 140 131 129 149 211 214 199 171 141 132 140 152 156 149 148 146 136 123 103 63 343 311 297 234 158 143 134 115 67 144 141 149 167 174 175 174 172 170 168 166 165 164 164 164 165 166 166 167 168 169 170 171 171 170 164 153 128 136 146 155
115 113 112 114 116 117 120 126 137 145 150 150 148 145 137 135 141 148 152 164 172 177 177 170 161 154 151 147 155 177 205 206 191 172 148 140 144 152 157 155 162 166 152 137 131 133 164 261 279 283 130 134 132 129 116 88 75 72 76 111 148 160 162 158 156 156 157 159 162 164 167 169 170 171 172 173 174 176 176 176 170 158 132 147 161 170
123 118 114 107 100 96 97 100 105 112 119 117 110 96 81 84 102 128 151 168 174 175 170 161 158 160 164 166 172 179 190 187 179 170 155 141 138 149 158 155 163 172 165 139 136 141 149 179 211 235 135 138 144 151 154 125 108 94 89 83 95 133 148 143 142 143 149 157 163 170 175 178 179 179 180 180 181 182 182 183 176 161 133 145 158 165
123 118 114 109 102 95 93 93 92 92 92 89 84 77 71 70 75 87 111 143 161 165 160 156 157 162 169 166 165 169 188 185 176 169 158 140 133 144 157 154 158 162 151 111 115 128 134 151 161 168 168 162 160 160 167 153 135 120 110 110 114 136 147 137 133 135 145 155 168 179 186 188 190 192 190 190 190 190 190 191 188 179 160 149 145 144
123 120 118 113 109 103 98 96 97 98 98 95 91 85 78 71 69 69 70 74 93 124 143 153 159 163 166 156 148 152 219 204 179 168 157 140 134 143 154 158 159 157 143 124 105 103 108 127 135 139 146 158 165 168 177 170 157 140 122 126 135 147 155 143 138 138 147 144 163 186 196 198 201 202 199 199 199 199 199 200 200 198 193 179 159 136
127 126 126 123 121 117 111 107 105 104 103 99 95 90 86 82 77 75 72 70 70 75 89 126 149 160 162 156 155 166 202 200 181 169 155 144 137 140 149 163 165 161 152 146 133 117 110 124 134 138 136 145 167 212 218 193 166 141 123 126 134 146 159 151 147 144 140 132 140 167 196 202 209 210 209 208 208 208 208 208 208 207 204 196 185 166
133 135 136 135 133 130 128 124 118 113 108 103 97 94 91 88 84 80 76 75 75 75 73 75 92 127 151 153 158 166 179 178 173 167 157 146 138 136 145 166 169 164 156 153 145 134 127 131 136 138 135 142 163 206 235 214 157 130 127 129 133 140 156 149 143 137 131 137 151 174 183 181 190 207 216 215 215 214 213 213 213 212 210 206 199 189
142 145 147 146 143 140 137 133 128 123 118 110 102 97 95 92 88 83 79 75 75 78 77 70 66 66 74 112 136 147 155 157 159 157 150 141 133 131 140 161 169 169 162 159 153 144 132 131 136 140 143 151 165 182 198 180 162 157 173 172 162 153 161 149 138 131 130 146 164 180 183 178 181 194 213 217 216 215 215 215 216 217 215 213 209 203
150 153 155 153 149 145 142 139 137 133 128 121 113 107 101 96 91 87 83 77 76 77 80 73 64 58 54 65 75 88 104 118 126 130 129 127 125 126 132 147 166 174 170 163 156 149 140 140 145 154 166 171 173 170 165 163 169 178 190 188 176 162 169 162 147 139 138 154 169 181 182 174 171 175 194 205 201 198 212 230 235 232 222 220 216 212
158 159 161 160 156 152 148 145 142 136 129 123 119 114 106 97 91 87 85 82 78 77 79 79 73 63 54 57 62 66 72 78 86 94 100 104 111 121 130 144 160 171 170 159 151 147 145 148 154 161 167 169 165 156 147 158 167 173 174 168 198 238 215 181 165 156 153 158 170 180 183 172 160 155 159 144 130 128 153 223 245 239 218 223 224 222
163 162 163 162 158 152 147 144 139 133 126 121 116 112 107 100 92 87 84 83 81 79 78 78 75 69 59 56 54 53 53 53 54 59 72 75 94 119 132 146 156 163 162 151 143 140 140 144 149 153 154 152 150 150 151 160 166 165 158 155 192 227 221 194 180 172 165 165 170 177 184 177 165 160 162 155 154 159 171 187 205 208 183 155 159 196
162 161 159 152 143 134 130 131 129 128 127 123 119 115 113 111 108 102 95 89 85 82 81 78 74 68 57 50 44 39 36 36 37 39 48 56 77 104 126 143 150 153 152 146 138 134 136 137 141 143 144 138 137 140 151 166 170 169 166 173 190 206 202 189 182 177 173 173 175 177 179 175 172 171 172 175 178 181 179 176 184 188 173 150 147 152
159 154 147 136 129 125 124 124 125 125 125 124 125 128 132 131 129 125 120 112 107 101 97 94 89 80 68 48 33 22 19 19 23 30 37 42 57 80 109 130 140 143 140 135 128 123 124 133 139 145 150 140 134 135 153 169 174 175 176 173 164 153 158 191 189 180 174 180 182 179 176 172 173 178 179 188 201 209 194 182 177 174 167 159 152 152
151 141 132 128 128 128 128 127 128 130 130 129 133 138 143 142 140 136 132 130 131 132 126 116 109 104 96 75 40 11 356 352 358 7 18 26 41 61 85 108 121 128 128 126 125 120 106 111 125 140 152 141 136 138 150 163 173 178 178 168 154 143 154 207 202 186 175 179 179 175 169 168 169 173 174 185 201 218 216 203 191 180 166 163 160 160
134 126 124 125 126 126 127 133 138 141 141 140 141 144 148 145 141 136 131 133 136 139 136 124 110 101 99 96 83 39 353 345 348 355 4 15 29 47 67 79 90 103 114 124 128 126 104 90 94 123 138 125 126 134 147 161 172 180 184 173 165 163 174 181 176 170 173 179 180 176 170 161 150 140 135 153 192 231 223 211 208 197 176 158 154 158
127 127 129 131 132 134 137 143 146 147 144 144 145 147 151 150 146 140 135 136 139 142 141 132 118 108 102 112 113 102 52 6 357 354 354 4 16 30 49 63 73 82 93 111 124 130 124 126 134 138 94 95 106 123 147 159 169 178 185 181 175 169 173 161 159 162 170 177 183 185 175 148 130 119 116 158 246 251 232 199 196 203 213 193 175 174
132 135 139 141 142 145 149 150 148 144 142 142 144 147 151 149 144 140 140 140 143 147 150 137 126 125 134 139 138 129 115 95 48 6 353 352 357 9 31 51 65 75 83 89 100 113 124 136 140 131 90 80 83 106 144 157 164 172 184 181 172 149 113 137 155 165 170 175 181 182 166 136 125 128 155 194 235 256 252 213 199 199 208 208 203 199
142 145 147 148 148 149 151 149 146 144 143 145 148 150 150 144 140 139 143 145 146 148 148 129 120 127 142 148 148 146 143 144 145 143 100 359 359 9 30 46 57 65 75 78 81 85 99 116 125 124 114 114 121 151 189 162 160 166 177 177 169 156 146 163 174 176 173 173 175 171 153 134 135 150 174 189 231 267 275 242 219 207 205 206 207 209
150 151 152 152 151 151 151 151 150 148 147 148 150 152 153 150 147 146 147 151 150 148 146 133 126 131 143 149 152 153 151 151 153 155 155 150 109 54 51 52 54 55 58 62 64 69 78 94 110 120 126 134 148 171 197 187 173 167 169 169 167 166 173 184 184 179 171 170 167 161 150 149 155 164 169 173 207 264 273 258 240 225 213 208 206 209
153 154 155 154 154 155 157 157 155 152 150 150 151 153 157 155 153 151 151 154 154 152 150 146 142 141 146 152 154 152 148 147 148 151 155 155 145 121 90 72 60 52 46 43 41 39 39 44 69 120 142 143 148 159 178 186 184 174 161 159 162 166 172 180 178 171 164 163 162 160 159 159 157 154 151 160 184 233 263 263 253 239 225 212 206 205
154 155 157 157 158 159 161 160 158 156 154 153 153 155 158 154 150 147 147 152 155 157 157 154 150 148 151 155 156 154 151 148 148 151 156 155 148 136 123 107 92 76 61 47 36 29 23 11 357 323 210 183 170 161 162 174 179 175 165 163 161 159 161 167 170 166 158 156 156 156 154 152 141 133 135 151 173 215 262 270 263 252 239 219 208 204
157 158 160 160 161 162 162 162 161 159 156 156 156 156 156 154 149 145 144 151 156 160 162 157 152 151 154 157 159 159 157 153 152 155 158 157 151 145 139 132 123 112 101 95 84 68 57 30 350 317 279 226 202 186 166 165 165 168 179 187 174 156 151 155 160 159 155 152 150 150 149 148 142 135 136 146 158 186 250 266 268 264 253 227 210 205